Regional Weather Roundup
Issued by NWS Midland/Odessa, TX

Skip options and go directly to product.
Home | Oldest Version | Previous Version | Current Version | All | Graphics & Text | Save Text | Print | Product List | Glossary On

Skip product version selection by date and time.   
577
ASUS44 KMAF 122210
RWRMAF
MIDLAND AREA WEATHER ROUNDUP
NATIONAL WEATHER SERVICE MIDLAND TX
400 PM CST FRI FEB 12 2016

...IN SOUTHWEST TEXAS AND SOUTHEAST NEW MEXICO...

CITY           SKY/WX    TMP DP  RH WIND       PRES   REMARKS
ALPINE         SUNNY     74  20  13 E13       30.30F
ANDREWS        FAIR      73  27  18 SE10G16   30.24F HAZE
ARTESIA        SUNNY     68  27  21 N7G15     30.24F
BIG SPRING     SUNNY     70  31  24 E8        30.26S
CARLSBAD       SUNNY     70  26  19 N8        30.22F
DRYDEN           N/A     82  20  10 VRB7      30.16S
FORT STOCKTON  SUNNY     74  23  15 VRB3      30.22F
GUAD PASS      SUNNY     73  12   9 SW13      30.31S
HOBBS          SUNNY     72  18  13 SE9       30.24F
MARFA          SUNNY     73   0   5 VRB3      30.28F
MIDLAND AIRPK  SUNNY     75  28  17 E5        30.24S
MIDLAND INTL   SUNNY     75  27  17 VRB3      30.23S
ODESSA         SUNNY     74  24  15 E3        30.23F
PECOS          SUNNY     74  25  16 N3        30.20S
PRESIDIO       NOT AVBL
SEMINOLE       SUNNY     73  27  18 SE9       30.25S
SNYDER           N/A     69  28  21 E13G18    30.26S
WINK           SUNNY     75  23  14 CALM      30.20F
$$
...OTHER STATIONS IN TEXAS...

CITY           SKY/WX    TMP DP  RH WIND       PRES   REMARKS
ABILENE        SUNNY     70  30  22 E13G18    30.25S
AMARILLO       SUNNY     66  27  23 SE10G18   30.29F
AUSTIN         SUNNY     78  40  25 N13       30.18S
BROWNSVILLE    SUNNY     77  58  51 SE17      30.16F
CORPUS CHRISTI MOSUNNY   82  59  45 SE17      30.15S
DALLAS FTW     SUNNY     70  35  27 N12       30.25S
DEL RIO        SUNNY     84  27  12 S7        30.12F
EL PASO        SUNNY     74  12   9 CALM      30.23F
HOUSTON INT    SUNNY     77  54  44 VRB3      30.17S
LUBBOCK        SUNNY     70  23  17 SE17      30.25F
SAN ANGELO     SUNNY     74  33  22 NE9       30.21F
SAN ANTONIO    SUNNY     81  45  28 SE8       30.16F
WACO           SUNNY     73  36  25 NE15      30.22S
WICHITA FALLS  NOT AVBL
$$
...OTHER LOCATIONS IN NEW MEXICO...

CITY           SKY/WX    TMP DP  RH WIND       PRES   REMARKS
ALAMAGORDO     SUNNY     73   9   8 CALM      30.23F
ALBUQUERQUE    SUNNY     67  19  16 W5        30.30F
CANNON AFB     SUNNY     69  17  13 S14       30.25F
CLOVIS         SUNNY     68  23  18 SE13      30.27S
HOLLOMAN AFB   SUNNY     73   6   7 VRB2      30.22F
ROSWELL        SUNNY     71  21  15 VRB5      30.23F
RUIDOSO        SUNNY     64  14  14 SE15      30.35S
SANTA FE       SUNNY     65  15  14 N6        30.31F
TRUTH OR CONSE SUNNY     71   6   8 SE5       30.25F
TUCUMCARI      SUNNY     69  21  16 E9G21     30.26F
$$

USA.gov is the U.S. government's official web portal to all federal, state and local government web resources and services.